Regional Weather Roundup
Issued by NWS

Home | Current Version | Previous Version | Graphics & Text | Print | Product List | Glossary On
Versions: 1 2 3 4 5 6 7 8 9 10 11 12 13 14 15 16 17 18 19 20 21 22 23 24 25 26 27 28 29 30 31 32 33 34 35 36 37 38 39 40 41 42 43 44 45 46 47 48 49 50
000
ASUS43 KLSX 220507
RWRMO

WEATHER SUMMARY FOR MISSOURI
NATIONAL WEATHER SERVICE SPRINGFIELD MO
1200 AM CDT TUE JUL 22 2014

NOTE: "FAIR" INDICATES FEW OR NO CLOUDS BELOW 12,000 FEET WITH NO
       SIGNIFICANT WEATHER AND/OR OBSTRUCTIONS TO VISIBILITY.
       CURRENT SKY AND/OR WEATHER CONDITIONS ARE NOT AVAILABLE FOR
       CHILLICOTHE AND FARMINGTON.

MOZ001>031-035>038-043-044-053-054-220600-
...NORTHERN AND WESTERN MISSOURI...

CITY           SKY/WX    TMP DP  RH WIND       PRES   REMARKS
KANSAS CTY INT PTCLDY    81  73  76 S12       29.98S
KANSAS C DTWN  PTCLDY    84  73  69 SW8       29.97S HX  90
LEE`S SUMMIT   CLEAR     81  73  76 SW9       30.01R
ST JOSEPH      PTCLDY    82  73  74 S12       29.95S
CHILLICOTHE      N/A     81  74  79 S7        29.98F
KIRKSVILLE     CLEAR     72  69  90 S7        30.02R

$$
MOZ066>068-077>081-088>096-101>105-220600-
...SOUTHWEST MISSOURI...

CITY           SKY/WX    TMP DP  RH WIND       PRES   REMARKS
SPRINGFIELD    CLEAR     75  66  73 SE12      30.08R
JOPLIN         CLEAR     77  72  84 SW7       30.05R

$$
MOZ032>034-039>042-045>050-055>058-069>072-220600-
...CENTRAL MISSOURI...

CITY           SKY/WX    TMP DP  RH WIND       PRES   REMARKS
COLUMBIA       CLEAR     73  68  84 S7        30.04S
JEFFERSON CITY CLEAR     75  67  76 E6        30.03R
ROLLA          CLEAR     72  65  78 S9        30.07R
SEDALIA        CLEAR     76  69  79 S8        30.04R
WHITEMAN AFB   CLEAR     77  64  65 S7        30.01R
OSAGE BEACH    CLEAR     75  66  73 S6        30.06R

$$
MOZ051-052-059>065-220600-
...EAST CENTRAL MISSOURI...

CITY           SKY/WX    TMP DP  RH WIND       PRES   REMARKS
ST LOUIS INTL  CLEAR     79  65  62 S9        30.06S
SPIRIT OF STL  CLEAR     75  66  73 S3        30.04S
ST CHARLES     CLEAR     69  66  90 NE3       30.04R

$$
MOZ072>076-082>087-097>100-106>115-220600-
...SOUTH CENTRAL AND SOUTHEAST MISSOURI...

CITY           SKY/WX    TMP DP  RH WIND       PRES   REMARKS
CAPE GIRARDEAU CLEAR     67  65  93 CALM      30.06S FOG
FARMINGTON     CLEAR     70  64  83 CALM      30.11S
POPLAR BLUFF   CLEAR     67  64  90 CALM      30.06R FOG
WEST PLAINS    CLEAR     69  64  84 CALM      30.11S

$$


USA.gov is the U.S. government's official web portal to all federal, state and local government web resources and services.